Date String (YYYY-MM-DD hh:mm:ss) UTC,Instrument flags,absolute air pressure of the measurement (hPa),sample flow rate (lpm),inlet stack bypass flow (lpm),air temperature of the measurement (°C),ambient temperature measured by the external sensor (°C),aerosol sample conditioner tube jacket temperature (°C),OPC LED temperature (°C),internal box temperature (°C),relative humidity of the measurement (%),span deviation,mass concentration of particles derived from Lorenz-Mie calculation of OPC scattering (μg/m³),mass concentration of particles derived from Lorenz-Mie calculation of OPC scattering (μg/m³),mass concentration of particles derived from Lorenz-Mie calculation of OPC scattering (μg/m³)
DateTimeUTC,F1_M11,P_M11,Q1_M11,Q2_M11,T1_M11,T2_M11,T3_M11,T4_M11,T5_M11,U1_M11,ZSPAN_M11,X0_M11,X2_M11,X1_M11
2024-01-03 22:00:00,SystemResetWarning,0826.9,4.98,000.00,024.5,023.8,000.0,032.6,025.7,8.9,0004.1,0022.22,0010.68,0009.83
2024-01-03 22:01:00,SystemResetWarning,0827.0,5.00,000.00,024.5,023.8,000.0,032.7,025.8,8.8,0004.0,0022.71,0010.57,0009.72
2024-01-03 22:02:00,SystemResetWarning,0827.0,5.00,000.00,024.5,023.9,000.0,032.7,025.9,8.8,0003.8,0022.23,0010.47,0009.63
2024-01-03 22:03:00,SystemResetWarning,0826.9,5.01,000.00,024.5,023.9,000.0,032.7,025.9,8.8,0003.6,0021.21,0010.38,0009.55
2024-01-03 22:04:00,SystemResetWarning,0827.0,5.00,000.00,024.5,023.9,000.0,032.7,025.9,9.0,0003.9,0020.11,0010.30,0009.46
2024-01-03 22:05:00,SystemResetWarning,0826.9,4.99,000.00,024.5,023.9,000.0,032.7,025.9,8.9,0004.2,0019.41,0010.18,0009.37
2024-01-03 22:06:00,SystemResetWarning,0826.9,4.99,000.00,024.5,023.9,000.0,032.7,025.9,8.8,0004.0,0018.16,0010.05,0009.27
2024-01-03 22:07:00,SystemResetWarning,0826.9,5.02,000.00,024.5,023.9,000.0,032.7,025.9,9.0,0004.7,0017.79,0010.03,0009.21
2024-01-03 22:08:00,SystemResetWarning,0826.9,5.00,000.00,024.5,023.9,000.0,032.7,025.9,9.1,0005.1,0017.70,0010.01,0009.18
2024-01-03 22:09:00,SystemResetWarning,0826.9,5.00,000.00,024.6,023.9,000.0,032.7,025.9,9.1,0005.1,0017.41,0009.96,0009.18
2024-01-03 22:10:00,SystemResetWarning,0826.9,4.99,000.00,024.6,023.9,000.0,032.8,025.9,9.0,0005.2,0016.77,0009.90,0009.17
2024-01-03 22:11:00,SystemResetWarning,0826.9,5.01,000.00,024.6,023.9,000.0,032.8,025.9,8.9,0005.3,0017.46,0009.83,0009.11
2024-01-03 22:12:00,SystemResetWarning,0826.9,5.00,000.00,024.6,024.0,000.0,032.8,026.0,8.9,0005.9,0016.65,0009.72,0009.01
2024-01-03 22:13:00,SystemResetWarning,0826.9,5.00,000.00,024.6,024.0,000.0,032.8,026.0,8.8,0006.3,0015.98,0009.58,0008.87
2024-01-03 22:14:00,SystemResetWarning,0826.9,4.99,000.00,024.6,024.0,000.0,032.8,026.0,8.8,0006.4,0015.66,0009.45,0008.70
2024-01-03 22:15:00,SystemResetWarning,0826.9,5.00,000.00,024.6,024.0,000.0,032.8,026.0,8.9,0006.3,0015.95,0009.35,0008.56
2024-01-03 22:16:00,SystemResetWarning,0826.9,5.01,000.00,024.6,024.0,000.0,032.8,026.0,8.8,0006.1,0015.83,0009.21,0008.42
2024-01-03 22:17:00,SystemResetWarning,0826.9,5.01,000.00,024.6,024.0,000.0,032.8,026.0,8.8,0006.1,0015.72,0009.11,0008.32
2024-01-03 22:18:00,SystemResetWarning,0826.9,4.98,000.00,024.7,024.0,000.0,032.8,026.0,8.8,0006.0,0015.80,0008.95,0008.18
2024-01-03 22:19:00,SystemResetWarning,0826.9,5.01,000.00,024.7,024.0,000.0,032.8,026.0,8.9,0006.1,0015.80,0008.74,0008.03
2024-01-03 22:20:00,SystemResetWarning,0826.9,5.01,000.00,024.7,024.1,000.0,032.8,026.0,8.9,0006.0,0015.93,0008.69,0007.93
2024-01-03 22:21:00,SystemResetWarning,0826.9,4.99,000.00,024.7,024.1,000.0,032.9,026.0,8.9,0006.0,0016.67,0008.67,0007.87
2024-01-03 22:22:00,SystemResetWarning,0827.0,5.00,000.00,024.7,024.1,000.0,032.9,026.1,8.9,0006.2,0016.32,0008.68,0007.87
2024-01-03 22:23:00,SystemResetWarning,0826.9,5.01,000.00,024.7,024.1,000.0,032.9,026.1,8.8,0005.9,0016.46,0008.73,0007.89
2024-01-03 22:24:00,SystemResetWarning,0826.9,4.99,000.00,024.7,024.1,000.0,032.9,026.1,8.8,0005.8,0016.83,0008.73,0007.89
2024-01-03 22:25:00,SystemResetWarning,0826.9,5.00,000.00,024.7,024.1,000.0,032.9,026.2,8.7,0005.7,0017.28,0008.71,0007.90
2024-01-03 22:26:00,SystemResetWarning,0827.0,5.01,000.00,024.8,024.2,000.0,032.9,026.2,8.7,0005.7,0016.90,0008.68,0007.91
2024-01-03 22:27:00,SystemResetWarning,0826.9,5.00,000.00,024.8,024.2,000.0,032.9,026.2,8.7,0005.6,0017.02,0008.66,0007.90
2024-01-03 22:28:00,SystemResetWarning,0826.9,5.00,000.00,024.8,024.2,000.0,033.0,026.2,8.8,0005.7,0016.99,0008.62,0007.86
2024-01-03 22:29:00,SystemResetWarning,0827.0,5.00,000.00,024.8,024.2,000.0,033.0,026.2,8.6,0005.7,0017.40,0008.61,0007.82
2024-01-03 22:30:00,SystemResetWarning,0827.0,5.01,000.00,024.8,024.2,000.0,033.0,026.2,8.6,0005.7,0017.09,0008.60,0007.80
2024-01-03 22:31:00,SystemResetWarning,0827.0,4.99,000.00,024.8,024.2,000.0,033.0,026.2,8.5,0005.5,0016.61,0008.55,0007.75
2024-01-03 22:32:00,SystemResetWarning,0827.0,5.01,000.00,024.8,024.2,000.0,033.0,026.2,8.5,0005.4,0015.75,0008.48,0007.71
2024-01-03 22:33:00,SystemResetWarning,0827.0,5.00,000.00,024.8,024.2,000.0,033.0,026.2,8.5,0005.0,0015.65,0008.43,0007.67
2024-01-03 22:34:00,SystemResetWarning,0827.0,4.99,000.00,024.9,024.2,000.0,033.0,026.2,8.5,0004.8,0015.49,0008.37,0007.64
2024-01-03 22:35:00,SystemResetWarning,0827.0,4.99,000.00,024.9,024.2,000.0,033.0,026.2,8.6,0004.5,0015.26,0008.40,0007.64
2024-01-03 22:36:00,SystemResetWarning,0827.0,5.01,000.00,024.9,024.2,000.0,033.0,026.2,8.7,0004.0,0014.65,0008.40,0007.64
2024-01-03 22:37:00,SystemResetWarning,0827.0,5.01,000.00,024.9,024.2,000.0,033.0,026.2,8.7,0004.1,0015.39,0008.39,0007.64
2024-01-03 22:38:00,SystemResetWarning,0827.0,4.98,000.00,024.9,024.2,000.0,033.1,026.2,8.7,0004.1,0015.73,0008.42,0007.64
2024-01-03 22:39:00,SystemResetWarning,0827.0,5.00,000.00,024.9,024.2,000.0,033.1,026.2,8.7,0003.9,0015.88,0008.43,0007.62
2024-01-03 22:40:00,SystemResetWarning,0826.9,5.00,000.00,024.9,024.2,000.0,033.1,026.2,8.7,0003.5,0015.75,0008.39,0007.60
2024-01-03 22:41:00,SystemResetWarning,0827.0,5.01,000.00,024.9,024.2,000.0,033.1,026.2,8.7,0003.1,0014.81,0008.37,0007.59
2024-01-03 22:42:00,SystemResetWarning,0827.0,5.00,000.00,024.9,024.2,000.0,033.1,026.2,8.7,0003.6,0015.03,0008.34,0007.55
2024-01-03 22:43:00,SystemResetWarning,0827.0,5.01,000.00,024.9,024.2,000.0,033.1,026.2,8.7,0004.0,0015.54,0008.26,0007.47
2024-01-03 22:44:00,SystemResetWarning,0827.0,5.00,000.00,024.9,024.2,000.0,033.1,026.2,8.6,0004.1,0015.47,0008.15,0007.37
2024-01-03 22:45:00,SystemResetWarning,0827.0,4.99,000.00,024.9,024.2,000.0,033.1,026.2,8.7,0004.1,0015.46,0008.08,0007.27
2024-01-03 22:46:00,SystemResetWarning,0827.0,4.99,000.00,024.9,024.2,000.0,033.1,026.1,9.2,0005.0,0015.37,0007.96,0007.18
2024-01-03 22:47:00,SystemResetWarning,0827.0,5.00,000.00,024.9,024.2,000.0,033.1,026.1,9.6,0005.5,0015.46,0007.88,0007.11
2024-01-03 22:48:00,SystemResetWarning,0827.0,5.00,000.00,024.9,024.2,000.0,033.1,026.1,9.8,0005.9,0015.16,0007.83,0007.06
2024-01-03 22:49:00,SystemResetWarning,0827.0,5.00,000.00,024.9,024.1,000.0,033.1,026.0,9.9,0005.7,0014.70,0007.80,0007.05
2024-01-03 22:50:00,SystemResetWarning,0827.0,5.00,000.00,024.8,024.0,000.0,033.1,026.0,10.0,0005.8,0014.86,0007.78,0007.06
2024-01-03 22:51:00,SystemResetWarning,0827.0,5.02,000.00,024.8,024.0,000.0,033.1,026.0,10.0,0006.0,0014.66,0007.77,0007.08
2024-01-03 22:52:00,SystemResetWarning,0827.0,5.00,000.00,024.8,024.0,000.0,033.1,026.0,10.0,0006.0,0015.43,0007.74,0007.07
2024-01-03 22:53:00,SystemResetWarning,0827.0,4.98,000.00,024.8,023.9,000.0,033.1,026.0,10.0,0006.2,0015.17,0007.69,0007.06
2024-01-03 22:54:00,SystemResetWarning,0827.0,5.00,000.00,024.8,023.9,000.0,033.1,026.0,10.0,0006.4,0014.36,0007.67,0007.09
2024-01-03 22:55:00,SystemResetWarning,0827.0,5.02,000.00,024.8,023.9,000.0,033.1,026.0,10.0,0006.4,0014.19,0007.74,0007.14
2024-01-03 22:56:00,SystemResetWarning,0827.0,5.00,000.00,024.8,023.9,000.0,033.1,026.0,10.0,0006.2,0014.11,0007.82,0007.22
2024-01-03 22:57:00,SystemResetWarning,0827.0,4.99,000.00,024.8,023.9,000.0,033.1,026.0,9.9,0006.2,0014.44,0007.90,0007.27
2024-01-03 22:58:00,SystemResetWarning,0827.0,5.00,000.00,024.8,023.9,000.0,033.1,026.0,10.0,0006.0,0015.08,0007.94,0007.30
2024-01-03 22:59:00,SystemResetWarning,0827.0,5.00,000.00,024.8,023.9,000.0,033.1,026.0,10.0,0005.6,0014.97,0007.91,0007.30
